FW6987 Weather Reports


time (UTC)temp
F
wind
direction
speed
knots
gust
knots
rain 1hr
in
rain 24hr
in
rain mn
in
humidity
%
barometer
mb
20260831233058 69 0 0.0 0.0 0.00 0.00 0.00 91 1009.0
20260831231558 69 0 0.0 0.0 0.00 0.00 0.00 91 1009.0
20260831230110 69 0 0.0 0.0 0.00 0.00 0.00 91 1009.1
20260831224602 69 0 0.0 0.0 0.00 0.00 0.00 91 1009.4
20260831223058 69 0 0.0 0.0 0.00 0.00 0.00 91 1009.4
20260831221602 70 0 0.0 0.0 0.00 0.00 0.00 90 1009.4
20260831220057 70 0 0.0 0.0 0.00 0.00 0.00 90 1009.4
20260831214604 70 0 0.0 0.0 0.00 0.00 0.00 89 1009.4
20260831213055 70 0 0.0 0.0 0.00 0.00 0.00 89 1009.5
20260831211557 70 0 0.0 0.0 0.00 0.00 0.00 89 1009.5
20260831210125 70 0 0.0 0.0 0.00 0.00 0.00 88 1009.6
20260831204600 71 0 0.0 0.0 0.00 0.00 0.00 88 1009.7
20260831203105 71 0 0.0 0.0 0.00 0.00 0.00 87 1009.5
20260831201601 71 0 0.0 0.0 0.00 0.00 0.00 87 1009.7
20260831200057 71 0 0.0 0.0 0.00 0.00 0.00 85 1009.6
20260831194616 72 0 0.0 0.0 0.00 0.00 0.00 85 1009.7
20260831193058 72 0 0.0 0.0 0.00 0.00 0.00 85 1010.1
20260831191601 72 0 0.0 0.0 0.00 0.00 0.00 83 1010.1
20260831190109 73 0 0.0 0.0 0.00 0.00 0.00 82 1010.5
20260831184601 73 0 0.0 0.0 0.00 0.00 0.00 78 1010.4
20260831183105 73 0 0.0 0.0 0.00 0.00 0.00 77 1010.9
20260831181610 73 0 0.0 0.0 0.00 0.00 0.00 78 1010.8
20260831180111 73 0 0.0 0.0 0.00 0.00 0.00 78 1010.9
20260831174604 72 0 0.0 0.0 0.00 0.00 0.00 79 1011.3
20260831173130 72 0 0.0 0.0 0.00 0.00 0.00 80 1011.4
20260831171603 72 0 0.0 0.0 0.00 0.00 0.00 79 1011.5
20260831170121 72 0 0.0 0.0 0.00 0.00 0.00 79 1011.6
20260831164609 72 0 0.0 0.0 0.00 0.00 0.00 78 1011.5
20260831163058 73 0 0.0 0.0 0.00 0.00 0.00 78 1011.4
20260831161605 73 0 0.0 0.0 0.00 0.00 0.00 79 1011.6
20260831160105 73 0 0.0 0.0 0.00 0.00 0.00 78 1011.8
20260831154625 72 0 0.0 0.0 0.00 0.00 0.00 79 1011.7
20260831153100 72 0 0.0 0.0 0.00 0.00 0.00 80 1011.8
20260831151600 71 0 0.0 0.0 0.00 0.00 0.00 81 1012.0
20260831150108 70 0 0.0 6.1 0.00 0.00 0.00 83 1012.0
20260831144605 70 98 0.0 1.7 0.00 0.00 0.00 84 1011.7
20260831143104 69 136 0.0 1.7 0.00 0.00 0.00 87 1011.9
20260831141603 69 0 0.0 0.0 0.00 0.00 0.00 88 1012.0
20260831134605 68 0 0.0 0.0 0.00 0.00 0.00 91 1011.7
20260831133100 67 0 0.0 0.0 0.00 0.00 0.00 91 1011.6
20260831131559 67 0 0.0 0.0 0.00 0.00 0.00 92 1011.7
20260831130104 66 0 0.0 0.0 0.00 0.00 0.00 93 1011.6
20260831124609 66 0 0.0 0.0 0.00 0.00 0.00 93 1011.6
20260831123055 65 0 0.0 0.0 0.00 0.00 0.00 94 1011.6
20260831121600 64 0 0.0 0.0 0.00 0.00 0.00 94 1011.5
20260831120105 64 0 0.0 0.0 0.00 0.00 0.00 93 1011.6
20260831114600 63 0 0.0 0.0 0.00 0.00 0.00 93 1011.6
20260831113106 63 0 0.0 0.0 0.00 0.00 0.00 93 1011.8
20260831111619 63 0 0.0 0.0 0.00 0.00 0.00 92 1011.4
20260831110059 63 0 0.0 0.0 0.00 0.00 0.00 92 1011.3
20260831104608 63 0 0.0 0.0 0.00 0.00 0.00 92 1011.2
20260831103104 63 0 0.0 0.0 0.00 0.00 0.00 91 1011.0
20260831101602 63 0 0.0 0.0 0.00 0.00 0.00 91 1010.7
20260831100100 63 0 0.0 0.0 0.00 0.00 0.00 90 1010.8
20260831094618 63 0 0.0 0.0 0.00 0.00 0.00 90 1010.7
20260831093054 64 0 0.0 0.0 0.00 0.00 0.00 90 1010.7
20260831091558 64 0 0.0 0.0 0.00 0.00 0.00 90 1010.6
20260831090105 64 0 0.0 0.9 0.00 0.00 0.00 89 1010.6
20260831084558 64 0 0.0 0.9 0.00 0.00 0.00 89 1010.7
20260831083106 64 0 0.0 1.7 0.00 0.00 0.00 89 1010.5
20260831081605 64 32 0.0 1.7 0.00 0.00 0.00 88 1010.3
20260831080118 64 0 0.0 1.7 0.00 0.00 0.00 88 1010.2
20260831074559 64 0 0.0 0.0 0.00 0.00 0.00 87 1010.6
20260831073059 64 0 0.0 1.7 0.00 0.00 0.00 86 1010.2
20260831071600 65 311 0.0 3.5 0.00 0.00 0.00 85 1010.2
20260831070100 65 0 0.0 0.9 0.00 0.00 0.00 84 1010.3
20260831064602 66 0 0.0 0.9 0.00 0.00 0.00 83 1010.1
20260831063059 66 0 0.0 1.7 0.00 0.00 0.00 82 1009.9
20260831061606 67 0 0.0 4.3 0.00 0.00 0.00 82 1009.9
20260831060058 67 115 0.0 3.5 0.00 0.00 0.00 82 1009.9
20260831054604 67 0 0.0 2.6 0.00 0.00 0.00 82 1010.0
20260831053057 67 0 0.0 1.7 0.00 0.00 0.00 82 1010.1
20260831051601 66 300 0.0 1.7 0.00 0.00 0.00 83 1010.1
20260831050114 66 0 0.0 1.7 0.00 0.00 0.00 84 1010.0
20260831044619 67 0 0.0 0.0 0.00 0.00 0.00 83 1010.1
20260831043057 67 0 0.0 0.0 0.00 0.00 0.00 83 1010.0
20260831041615 67 0 0.0 0.0 0.00 0.00 0.00 82 1010.2
20260831040100 68 0 0.0 0.0 0.00 0.00 0.00 82 1010.1
20260831034606 68 0 0.0 0.0 0.00 0.00 0.00 82 1010.0
20260831033106 68 0 0.0 1.7 0.00 0.00 0.00 82 1009.8
20260831031603 68 114 1.7 5.2 0.00 0.00 0.00 82 1009.8
20260831030059 68 0 0.0 0.9 0.00 0.00 0.00 85 1009.9
20260831024622 69 0 0.0 1.7 0.00 0.00 0.00 84 1009.9
20260831023057 69 0 0.0 1.7 0.00 0.00 0.00 83 1010.0
20260831021559 69 0 0.0 1.7 0.00 0.00 0.00 82 1009.6
20260831020113 70 0 0.0 1.7 0.00 0.00 0.00 83 1010.1
20260831014608 70 0 0.0 1.7 0.00 0.00 0.00 83 1009.8
20260831013104 71 0 0.0 1.7 0.00 0.00 0.00 82 1009.6
20260831011610 71 289 0.0 2.6 0.00 0.00 0.00 81 1009.3
20260831010100 71 0 0.0 3.5 0.00 0.00 0.00 81 1009.4
20260831004603 71 0 0.0 1.7 0.00 0.00 0.00 83 1009.4
20260831003059 71 0 0.0 1.7 0.00 0.00 0.00 83 1009.1
20260831001601 71 0 0.0 2.6 0.00 0.00 0.00 83 1008.8
20260831000059 71 0 0.0 1.7 0.00 0.00 0.00 84 1008.7
20260830234612 71 0 0.0 1.7 0.00 0.00 0.00 87 1008.6